Back to catalog

ARIANE 1 DEB

AliveHEO
NORAD 26681·DEBRIS·🇫🇷 France

Launched Mar 5, 1984 from Guiana Space Centre

Loading…

Next Passes (next 24 hours)

TLE

FreshSource: Space-Track

Epoch: Sep 14, 2026, 09:39 UTC

1 26681U 84023G   26257.40216102  .00000156  00000-0  37639-2 0  9990
2 26681   8.8963  37.3641 6868938 136.4934 306.4063  2.60255953263023

Track ARIANE 1 DEB in real time with AllMySat

Download on the App Store